Wind_Speed
22 22 19 19 21 20 21 18 15 14 12 9 12 14 12 11 8 7 6 9 10 5
22 25 22 17 16 16 14 15 17 17 16 14 12 11 14 13 10 11 7 8 11 10
24 23 24 20 16 18 15 15 20 17 17 15 15 14 16 14 16 10 9 11 8 16
22 23 20 23 22 21 18 16 23 22 18 18 16 15 16 19 17 13 12 15 11 16
21 21 19 18 21 22 21 19 17 23 21 19 17 17 17 21 17 16 19 18 12 11
24 23 23 18 18 17 17 18 17 19 24 22 20 19 19 21 18 18 18 15 13 12
26 25 26 23 21 21 19 17 21 20 20 25 22 19 21 21 19 17 17 14 13 14
31 30 26 23 23 24 22 21 20 20 21 21 20 21 22 24 22 19 16 14 13 15
31 30 29 24 25 25 24 24 22 20 22 21 23 23 20 22 23 22 20 17 15 16
30 31 32 25 23 27 27 24 23 22 20 23 23 22 20 23 21 22 20 19 17 18
30 30 28 23 22 27 27 23 23 20 22 25 25 24 20 22 21 21 18 18 18 16
30 28 26 22 22 23 21 18 19 19 22 27 26 24 22 23 22 20 18 18 19 20
29 27 27 25 22 20 21 17 18 21 24 26 27 25 26 26 23 23 21 20 19 21
27 26 25 23 20 21 20 18 19 21 23 26 28 26 26 26 25 25 23 21 21 21
Wind_Direction
225 227 228 238 243 245 252 248 237 228 229 214 223 233 239 238 242 222 220 213 204 195
225 228 231 234 243 246 246 242 225 225 227 237 235 240 241 236 221 221 227 221 224 218
234 233 233 230 234 243 247 234 223 230 231 224 235 246 239 232 207 218 220 202 200 192
233 235 235 231 230 235 243 240 230 236 232 233 241 239 236 211 207 215 208 205 197 194
240 239 236 236 238 237 238 242 240 232 230 230 231 230 222 210 210 214 201 207 211 214
237 240 246 240 240 247 245 236 238 229 231 232 230 232 220 211 213 207 200 220 226 217
237 237 244 244 245 248 250 250 244 238 236 229 232 230 218 214 213 206 209 224 228 218
231 232 235 237 249 251 249 254 256 245 244 233 226 217 221 215 216 210 218 235 237 216
230 230 231 233 233 239 242 246 250 250 239 226 221 211 214 223 214 215 222 229 230 221
231 228 225 238 240 235 245 250 251 257 234 217 215 213 202 220 218 218 223 232 226 220
227 235 228 243 242 244 250 245 258 243 222 214 213 213 215 219 218 220 227 230 229 228
222 228 235 244 250 255 248 249 242 229 218 214 213 216 212 225 222 226 230 228 230 226
231 237 246 252 251 248 243 234 222 216 213 215 214 212 209 215 220 227 229 225 223 225
237 244 246 242 243 238 228 218 215 216 218 215 210 220 216 212 221 226 230 231 229 226
Height
1547 1550 1552 1555 1555 1557 1557 1560 1562 1564 1566 1568 1570 1572 1574 1575 1577 1578 1579 1579 1581 1582
1544 1546 1548 1552 1553 1554 1555 1556 1559 1561 1563 1565 1568 1569 1571 1572 1574 1575 1576 1577 1578 1579
1541 1544 1546 1548 1549 1550 1552 1554 1555 1558 1561 1563 1565 1566 1567 1568 1570 1571 1573 1574 1575 1576
1537 1540 1542 1544 1546 1547 1549 1551 1552 1554 1557 1560 1561 1563 1564 1565 1567 1569 1570 1570 1573 1575
1531 1535 1538 1540 1541 1543 1545 1548 1550 1551 1553 1555 1557 1559 1560 1562 1565 1566 1567 1568 1570 1572
1526 1531 1533 1536 1538 1540 1542 1544 1546 1548 1549 1551 1554 1556 1558 1559 1561 1564 1564 1564 1566 1568
1521 1525 1529 1532 1534 1536 1538 1540 1541 1543 1545 1548 1550 1552 1555 1556 1559 1560 1561 1562 1564 1565
1516 1519 1523 1526 1529 1531 1534 1536 1537 1540 1542 1543 1547 1548 1552 1553 1555 1556 1558 1559 1560 1561
1511 1514 1519 1522 1524 1526 1528 1530 1533 1535 1537 1539 1542 1545 1546 1552 1552 1553 1554 1556 1557 1557
1507 1510 1514 1518 1521 1521 1522 1525 1526 1528 1531 1534 1537 1540 1538 1547 1549 1550 1551 1551 1552 1555
1504 1507 1508 1511 1514 1516 1518 1519 1521 1522 1525 1529 1533 1536 1539 1544 1545 1546 1546 1548 1550 1551
1498 1503 1506 1507 1509 1511 1513 1516 1517 1519 1521 1523 1527 1532 1533 1537 1540 1541 1543 1544 1546 1547
1494 1497 1501 1503 1505 1507 1508 1511 1514 1515 1516 1519 1523 1525 1527 1532 1534 1537 1538 1540 1542 1543
1490 1493 1495 1497 1500 1501 1503 1506 1509 1511 1513 1515 1517 1520 1522 1526 1529 1531 1533 1534 1536 1537